Flag for U.S.A. Weather past 2 weeks in Austin, Texas, U.S.A.

Now
84 °F

Scattered clouds.


Feels Like: 89 °F
Forecast: 75 / 91 °F
Wind: 8 mph from South

Location: Camp Mabry / Austin City

Current Time: Jul 5, 2015 at 10:17:32 PM

Latest Report: Jul 5, 2015 at 8:51 PM


Visibility: 10 mi

Pressure: 29.94 "Hg

Humidity: 65%

Dew point: 71 °F

Location of AustinLocation

Historic Weather in Austin — Graph

°F

Austin temperature yesterday

Maximum temperature yesterday: 91 °F (at 3:51 PM)
Minimum temperature yesterday: 76 °F (at 4:51 AM)
Average temperature yesterday: 83 °F

Past Weeks' High & Low Weather Summary

 TemperatureHumidityPressure
High92 °F (Jun 24, 4:51 PM)97% (Jun 20, 10:51 PM)30.18 "Hg (Jun 20, 10:51 PM)
Low70 °F (Jul 2, 6:51 AM)49% (Jul 3, 3:51 PM)29.88 "Hg (Jul 3, 6:51 PM)
Average81 °F78%30.00 "Hg
* Reported Jun 20 8:51 PM — Jul 5 8:51 PM, Austin, Weather by CustomWeather, © 2015

Note: Actual official high and low records may vary slightly from our data, if they occured in-between our weather recording intervals... More about our weather records

Advertising

Austin weather history for previous 24 hours

 ConditionsComfort  
Time TempWeatherWind HumidityBarometerVisibility
8:51 PM
Sun, Jul 5
84 °FScattered clouds.8 mph65%29.94 "Hg10 mi
7:51 PM85 °FSunny.8 mph63%29.91 "Hg10 mi
6:51 PM87 °FPartly sunny.7 mph59%29.91 "Hg10 mi
5:51 PM89 °FPassing clouds.13 mph55%29.91 "Hg10 mi
4:51 PM89 °FScattered clouds.8 mph57%29.93 "Hg10 mi
3:51 PM89 °FBroken clouds.15 mph57%29.95 "Hg10 mi
2:51 PM91 °FScattered clouds.8 mph56%29.96 "Hg10 mi
1:51 PM90 °FPassing clouds.8 mph59%29.98 "Hg10 mi
12:51 PM88 °FPartly sunny.9 mph61%30.01 "Hg10 mi
11:51 AM85 °FBroken clouds.7 mph68%30.02 "Hg10 mi
10:51 AM81 °FPartly sunny.7 mph77%30.03 "Hg9 mi
10:04 AM80 °FBroken clouds.9 mph79%30.08 "Hg8 mi
9:51 AM80 °FWarm.7 mph79%30.04 "Hg8 mi
8:51 AM78 °FWarm.5 mph84%30.04 "Hg10 mi
7:51 AM77 °FMostly cloudy.5 mph85%30.03 "Hg10 mi
6:51 AM76 °FOvercast.3 mph88%30.01 "Hg10 mi
6:01 AM76 °FPassing clouds.3 mph91%30.05 "Hg10 mi
4:51 AM76 °FPassing clouds.5 mph91%29.98 "Hg10 mi
3:51 AM77 °FPassing clouds.5 mph90%29.97 "Hg10 mi
2:51 AM78 °FPassing clouds.6 mph87%29.97 "Hg10 mi
1:51 AM79 °FOvercast.5 mph88%29.97 "Hg10 mi
12:51 AM79 °FPassing clouds.7 mph84%29.97 "Hg10 mi
11:51 PM
Sat, Jul 4
80 °FClear.6 mph79%29.97 "Hg10 mi
10:51 PM81 °FClear.9 mph74%29.96 "Hg10 mi
Weather by CustomWeather, © 2015

See weather overviewHow to use our weather pages